Regional Weather Roundup
Issued by NWS

Home | Current Version | Previous Version | Text Only | Print | Product List | Glossary On
Versions: 1 2 3 4 5 6 7 8 9 10 11 12 13 14 15 16 17 18 19 20 21 22 23 24 25 26 27 28 29 30 31 32 33 34 35 36 37 38 39 40 41 42 43 44 45 46 47 48 49 50
492
ASUS46 KPQR 191610
RWROR

OREGON REGIONAL WEATHER ROUNDUP
NATIONAL WEATHER SERVICE PORTLAND OR
800 AM PST THU JAN 19 2017

NOTE: "FAIR" INDICATES FEW OR NO CLOUDS BELOW 12,000 FEET WITH
NO SIGNIFICANT WEATHER AND/OR OBSTRUCTIONS TO VISIBILITY.

ORZ001>013-191700-
NORTHWEST OREGON


CITY           SKY/WX    TMP DP  RH WIND       PRES   REMARKS
ASTORIA        LGT RAIN  49  42  77 S14G25    29.49R
NEWPORT        RAIN      46  45  93 S13G18    29.60F
PORTLAND       MOCLDY    37  35  92 SE9       29.61R WCI  30
VANCOUVER WA   MOCLDY    37  34  89 SE8       29.60R WCI  31
SCAPPOOSE      CLOUDY    43  40  89 S5        29.58R
HILLSBORO      CLOUDY    45  41  86 S9        29.57R
AURORA         LGT RAIN  47  40  76 S13       29.60R
MCMINNVILLE    CLOUDY    45  40  82 S13       29.59R
SALEM          LGT RAIN  46  39  76 S15       29.60R
CORVALLIS        N/A     45  39  81 S13       29.63R
EUGENE         MOCLDY    43  40  89 S10       29.65R
$$

ORZ021-028-191700-
SOUTHWEST OREGON


CITY           SKY/WX    TMP DP  RH WIND       PRES   REMARKS
NORTH BEND     CLOUDY    46  45  93 S10       29.67R
BROOKINGS      CLOUDY    44  42  93 SE5       29.73R
ROSEBURG       LGT RAIN  43  41  93 NE5       29.68R
SEXTON SUMMIT  SNOW      31  30  96 S14       29.61F VSB 1/4 WCI  21
MEDFORD        CLOUDY    38  38 100 SE3       29.70R FOG
$$

ORZ014>016-041-191700-
COLUMBIA GORGE


CITY           SKY/WX    TMP DP  RH WIND       PRES   REMARKS
TROUTDALE      CLOUDY    37  35  92 E7        29.61R WCI  32
THE DALLES     MOCLDY    26  24  92 CALM      29.65R FOG
$$

ORZ029>031-041-044-049-050-061>064-502-503-505>511-191700-
EASTERN OREGON


CITY           SKY/WX    TMP DP  RH WIND       PRES   REMARKS
REDMOND        MOCLDY    34  26  72 S8        29.59R WCI  27
BEND           MOCLDY    36  28  75 S15       29.60R WCI  26
PRINEVILLE     PTCLDY    34  28  80 S5        29.60R WCI  30
KLAMATH FALLS  MOCLDY    32  29  88 S7        29.67R WCI  26
LAKEVIEW       MOCLDY    28  27  93 SE10      29.68S WCI  19
HERMISTON      CLOUDY    32  31  96 CALM      29.60R FOG
PENDLETON      CLOUDY    40  34  79 CALM      29.58R
JOHN DAY       DRIZZLE   35  34  96 CALM      29.62R
MEACHAM        CLOUDY    31  28  89 CALM      29.58R
LA GRANDE      MOCLDY    36  30  80 S7        29.62R WCI  30
BAKER CITY     FLURRIES  28  27  96 CALM      29.63R
BURNS          FLURRIES  33  31  92 SW9       29.64R WCI  25
ROME             N/A     37  32  82 SW13      29.63  WCI  29
ONTARIO        CLOUDY    28  25  88 W7        29.70S FOG     WCI  21
$$




USA.gov is the U.S. government's official web portal to all federal, state and local government web resources and services.